| time (UTC) | temp F | wind direction | speed MPH | gust MPH | rain 1hr in | rain 24hr in | rain mn in | humidity % | barometer mb |
| 20260508164608 | 73 | 180 | 1.0 | 3.0 | 0.00 | 0.74 | 0.74 | 65 | 1015.7 |
| 20260508163631 | 72 | 90 | 1.0 | 2.0 | 0.00 | 0.74 | 0.74 | 71 | 1015.8 |
| 20260508162608 | 70 | 180 | 1.0 | 3.0 | 0.00 | 0.74 | 0.74 | 74 | 1016.0 |
| 20260508161631 | 69 | 225 | 1.0 | 2.0 | 0.00 | 0.74 | 0.74 | 74 | 1016.0 |
| 20260508160608 | 68 | 90 | 1.0 | 1.0 | 0.00 | 0.74 | 0.74 | 77 | 1016.1 |
| 20260508155652 | 67 | 0.0 | 1.0 | 0.00 | 0.74 | 0.74 | 78 | 1016.3 | |
| 20260508154628 | 67 | 0.0 | 0.0 | 0.00 | 0.74 | 0.74 | 76 | 1016.4 | |
| 20260508153652 | 68 | 90 | 1.0 | 1.0 | 0.00 | 0.74 | 0.74 | 78 | 1016.2 |
| 20260508152608 | 67 | 90 | 1.0 | 1.0 | 0.00 | 0.74 | 0.74 | 81 | 1016.2 |
| 20260508151632 | 66 | 90 | 1.0 | 2.0 | 0.00 | 0.74 | 0.74 | 81 | 1016.4 |
| 20260508150607 | 65 | 90 | 2.0 | 3.0 | 0.00 | 0.74 | 0.74 | 83 | 1016.3 |
| 20260508145631 | 65 | 90 | 1.0 | 1.0 | 0.00 | 0.74 | 0.74 | 86 | 1016.6 |
| 20260508144608 | 64 | 90 | 1.0 | 1.0 | 0.00 | 0.74 | 0.74 | 93 | 1016.5 |
| 20260508143632 | 64 | 180 | 1.0 | 3.0 | 0.00 | 0.74 | 0.74 | 95 | 1016.8 |
| 20260508142608 | 63 | 90 | 1.0 | 1.0 | 0.00 | 0.74 | 0.74 | 99 | 1016.6 |
| 20260508141632 | 63 | 90 | 1.0 | 1.0 | 0.00 | 0.74 | 0.74 | 99 | 1016.9 |
| 20260508140608 | 63 | 0.0 | 2.0 | 0.00 | 0.74 | 0.74 | 99 | 1016.6 | |
| 20260508135632 | 62 | 0.0 | 0.0 | 0.00 | 0.74 | 0.74 | 99 | 1016.9 | |
| 20260508134628 | 61 | 45 | 1.0 | 2.0 | 0.00 | 0.74 | 0.74 | 99 | 1016.7 |
| 20260508133631 | 61 | 0.0 | 1.0 | 0.01 | 0.74 | 0.74 | 99 | 1016.9 | |
| 20260508132607 | 60 | 0.0 | 0.0 | 0.01 | 0.74 | 0.74 | 99 | 1016.4 | |
| 20260508131631 | 60 | 135 | 1.0 | 1.0 | 0.01 | 0.74 | 0.74 | 99 | 1016.5 |
| 20260508130608 | 59 | 90 | 1.0 | 2.0 | 0.01 | 0.74 | 0.74 | 99 | 1017.1 |
| 20260508125632 | 59 | 0 | 1.0 | 1.0 | 0.01 | 0.74 | 0.74 | 99 | 1017.0 |
| 20260508124628 | 59 | 0.0 | 1.0 | 0.01 | 0.74 | 0.74 | 99 | 1017.2 | |
| 20260508123632 | 59 | 0.0 | 0.0 | 0.00 | 0.73 | 0.73 | 99 | 1016.8 | |
| 20260508122608 | 59 | 0.0 | 0.0 | 0.08 | 0.73 | 0.73 | 99 | 1017.0 | |
| 20260508121631 | 59 | 0.0 | 0.0 | 0.15 | 0.73 | 0.73 | 99 | 1017.1 | |
| 20260508120608 | 59 | 180 | 1.0 | 1.0 | 0.24 | 0.73 | 0.73 | 99 | 1017.0 |
| 20260508115631 | 58 | 180 | 1.0 | 1.0 | 0.30 | 0.73 | 0.73 | 99 | 1016.7 |
| 20260508114608 | 58 | 270 | 1.0 | 2.0 | 0.56 | 0.73 | 0.73 | 99 | 1016.8 |
| 20260508113632 | 58 | 0.0 | 1.0 | 0.57 | 0.73 | 0.73 | 98 | 1016.6 | |
| 20260508112608 | 58 | 135 | 1.0 | 1.0 | 0.53 | 0.65 | 0.65 | 98 | 1016.3 |
| 20260508111631 | 58 | 90 | 1.0 | 2.0 | 0.47 | 0.58 | 0.58 | 98 | 1016.7 |
| 20260508110608 | 58 | 0.0 | 1.0 | 0.39 | 0.50 | 0.50 | 98 | 1017.1 | |
| 20260508105632 | 59 | 45 | 2.0 | 3.0 | 0.33 | 0.44 | 0.44 | 98 | 1017.3 |
| 20260508104608 | 59 | 225 | 1.0 | 2.0 | 0.07 | 0.18 | 0.18 | 98 | 1017.3 |
| 20260508103632 | 59 | 90 | 1.0 | 2.0 | 0.06 | 0.17 | 0.17 | 98 | 1016.6 |
| 20260508102607 | 59 | 225 | 2.0 | 3.0 | 0.01 | 0.12 | 0.12 | 98 | 1016.4 |
| 20260508101651 | 59 | 0.0 | 0.0 | 0.00 | 0.11 | 0.11 | 97 | 1016.0 | |
| 20260508100608 | 58 | 0.0 | 1.0 | 0.00 | 0.11 | 0.11 | 97 | 1015.6 | |
| 20260508095652 | 58 | 0.0 | 0.0 | 0.00 | 0.11 | 0.11 | 97 | 1015.6 | |
| 20260508094628 | 58 | 45 | 1.0 | 1.0 | 0.01 | 0.11 | 0.11 | 96 | 1015.7 |
| 20260508093652 | 58 | 0.0 | 0.0 | 0.01 | 0.11 | 0.11 | 96 | 1016.0 | |
| 20260508092607 | 58 | 90 | 1.0 | 1.0 | 0.01 | 0.11 | 0.11 | 95 | 1015.9 |
| 20260508091632 | 58 | 45 | 1.0 | 2.0 | 0.05 | 0.11 | 0.11 | 94 | 1016.2 |
| 20260508090608 | 58 | 0.0 | 0.0 | 0.11 | 0.11 | 0.11 | 94 | 1016.6 | |
| 20260508085632 | 59 | 0.0 | 0.0 | 0.11 | 0.11 | 0.11 | 94 | 1016.5 | |
| 20260508084608 | 58 | 45 | 1.0 | 2.0 | 0.09 | 0.09 | 0.09 | 93 | 1016.1 |
| 20260508083652 | 58 | 0.0 | 1.0 | 0.09 | 0.09 | 0.09 | 92 | 1016.2 | |
| 20260508082608 | 58 | 0.0 | 0.0 | 0.09 | 0.09 | 0.09 | 91 | 1016.4 | |
| 20260508081631 | 59 | 0.0 | 1.0 | 0.06 | 0.06 | 0.06 | 91 | 1016.8 | |
| 20260508080607 | 58 | 0.0 | 1.0 | 0.00 | 0.00 | 0.00 | 91 | 1017.6 | |
| 20260508075632 | 58 | 270 | 1.0 | 1.0 | 0.00 | 0.00 | 0.00 | 91 | 1017.4 |
| 20260508074608 | 58 | 0.0 | 0.0 | 0.00 | 0.00 | 0.00 | 90 | 1017.3 | |
| 20260508073652 | 57 | 0.0 | 0.0 | 0.00 | 0.00 | 0.00 | 90 | 1017.2 | |
| 20260508072608 | 57 | 0.0 | 0.0 | 0.00 | 0.00 | 0.00 | 90 | 1017.0 | |
| 20260508071632 | 57 | 0.0 | 0.0 | 0.00 | 0.00 | 0.00 | 89 | 1017.2 | |
| 20260508070607 | 57 | 0.0 | 0.0 | 0.00 | 0.00 | 0.00 | 88 | 1017.2 | |
| 20260508065652 | 57 | 0.0 | 0.0 | 0.00 | 0.00 | 0.00 | 87 | 1017.4 | |
| 20260508064607 | 57 | 0.0 | 0.0 | 0.00 | 0.00 | 0.00 | 87 | 1017.9 | |
| 20260508063632 | 57 | 0.0 | 0.0 | 0.00 | 0.00 | 0.00 | 86 | 1017.9 | |
| 20260508062628 | 57 | 0.0 | 0.0 | 0.00 | 0.00 | 0.00 | 85 | 1017.9 | |
| 20260508061632 | 58 | 0.0 | 0.0 | 0.00 | 0.00 | 0.00 | 85 | 1017.7 | |
| 20260508060607 | 58 | 0.0 | 0.0 | 0.00 | 0.00 | 0.00 | 85 | 1017.5 | |
| 20260508055652 | 58 | 0.0 | 0.0 | 0.00 | 0.00 | 0.00 | 84 | 1017.6 | |
| 20260508054123 | 58 | 0.0 | 0.0 | 0.00 | 0.00 | 0.00 | 83 | 1017.7 | |
| 20260508053147 | 58 | 0.0 | 0.0 | 0.00 | 0.00 | 0.00 | 83 | 1017.9 | |
| 20260508052123 | 58 | 0.0 | 0.0 | 0.00 | 0.00 | 0.00 | 82 | 1017.9 | |
| 20260508051147 | 59 | 0.0 | 0.0 | 0.00 | 0.00 | 0.00 | 82 | 1017.7 | |
| 20260508050223 | 59 | 0.0 | 0.0 | 0.00 | 0.00 | 0.00 | 82 | 1017.9 | |
| 20260508045147 | 59 | 0.0 | 0.0 | 0.00 | 0.00 | 0.00 | 81 | 1017.8 | |
| 20260508044123 | 59 | 0.0 | 0.0 | 0.00 | 0.00 | 0.00 | 81 | 1017.5 | |
| 20260508043147 | 59 | 0.0 | 0.0 | 0.00 | 0.00 | 0.00 | 80 | 1017.8 | |
| 20260508042123 | 59 | 0.0 | 0.0 | 0.00 | 0.00 | 0.00 | 80 | 1017.9 | |
| 20260508041247 | 59 | 0.0 | 0.0 | 0.00 | 0.00 | 0.00 | 80 | 1017.9 | |
| 20260508040123 | 59 | 0.0 | 0.0 | 0.00 | 0.00 | 0.00 | 79 | 1017.7 | |
| 20260508035147 | 59 | 0.0 | 0.0 | 0.00 | 0.00 | 0.00 | 78 | 1017.8 | |
| 20260508034123 | 60 | 0.0 | 0.0 | 0.00 | 0.00 | 0.00 | 78 | 1017.6 | |
| 20260508033147 | 59 | 0.0 | 0.0 | 0.00 | 0.00 | 0.00 | 77 | 1017.6 | |
| 20260508032123 | 60 | 0.0 | 0.0 | 0.00 | 0.00 | 0.00 | 76 | 1017.4 | |
| 20260508031207 | 60 | 0.0 | 0.0 | 0.00 | 0.00 | 0.00 | 76 | 1017.3 | |
| 20260508030143 | 60 | 0.0 | 0.0 | 0.00 | 0.00 | 0.00 | 75 | 1017.5 | |
| 20260508025207 | 60 | 0.0 | 0.0 | 0.00 | 0.00 | 0.00 | 75 | 1017.4 | |
| 20260508024123 | 61 | 0.0 | 0.0 | 0.00 | 0.00 | 0.00 | 74 | 1017.4 | |
| 20260508023147 | 61 | 0.0 | 0.0 | 0.00 | 0.00 | 0.00 | 73 | 1017.2 | |
| 20260508022123 | 61 | 0.0 | 0.0 | 0.00 | 0.00 | 0.00 | 72 | 1017.2 | |
| 20260508021147 | 61 | 0.0 | 0.0 | 0.00 | 0.00 | 0.00 | 72 | 1017.3 | |
| 20260508020123 | 62 | 0.0 | 1.0 | 0.00 | 0.00 | 0.00 | 71 | 1017.1 | |
| 20260508015147 | 62 | 0.0 | 0.0 | 0.00 | 0.00 | 0.00 | 71 | 1017.1 | |
| 20260508014123 | 63 | 0.0 | 0.0 | 0.00 | 0.00 | 0.00 | 70 | 1017.1 | |
| 20260508013147 | 64 | 0.0 | 0.0 | 0.00 | 0.00 | 0.00 | 65 | 1017.1 | |
| 20260508012204 | 64 | 0.0 | 1.0 | 0.00 | 0.00 | 0.00 | 64 | 1016.9 | |
| 20260508011147 | 65 | 0.0 | 0.0 | 0.00 | 0.00 | 0.00 | 64 | 1017.1 | |
| 20260508010123 | 66 | 135 | 1.0 | 1.0 | 0.00 | 0.00 | 0.00 | 63 | 1016.8 |
| 20260508005147 | 66 | 0.0 | 0.0 | 0.00 | 0.00 | 0.00 | 62 | 1016.8 | |
| 20260508004123 | 67 | 0.0 | 1.0 | 0.00 | 0.00 | 0.00 | 61 | 1016.9 | |
| 20260508003207 | 68 | 135 | 1.0 | 3.0 | 0.00 | 0.00 | 0.00 | 61 | 1016.8 |
| 20260508002123 | 69 | 0.0 | 1.0 | 0.00 | 0.00 | 0.00 | 61 | 1017.0 | |
| 20260508001147 | 70 | 0.0 | 1.0 | 0.00 | 0.00 | 0.00 | 61 | 1017.2 | |
| 20260508000123 | 71 | 0.0 | 1.0 | 0.00 | 0.00 | 0.00 | 59 | 1016.8 | |
| 20260507235147 | 71 | 90 | 1.0 | 3.0 | 0.00 | 0.00 | 0.00 | 57 | 1016.8 |
| 20260507234123 | 71 | 90 | 1.0 | 2.0 | 0.00 | 0.00 | 0.00 | 55 | 1016.7 |
| 20260507233207 | 72 | 135 | 1.0 | 1.0 | 0.00 | 0.00 | 0.00 | 56 | 1016.8 |
| 20260507232123 | 72 | 180 | 1.0 | 3.0 | 0.00 | 0.00 | 0.00 | 54 | 1016.9 |
| 20260507231147 | 72 | 90 | 1.0 | 2.0 | 0.00 | 0.00 | 0.00 | 53 | 1016.9 |
| 20260507230123 | 71 | 90 | 1.0 | 2.0 | 0.00 | 0.00 | 0.00 | 52 | 1017.0 |
| 20260507225147 | 72 | 90 | 1.0 | 1.0 | 0.00 | 0.00 | 0.00 | 51 | 1017.1 |
| 20260507224123 | 73 | 90 | 1.0 | 2.0 | 0.00 | 0.00 | 0.00 | 48 | 1017.2 |
| 20260507223147 | 73 | 90 | 2.0 | 3.0 | 0.00 | 0.00 | 0.00 | 46 | 1017.3 |
| 20260507222143 | 73 | 135 | 2.0 | 3.0 | 0.00 | 0.00 | 0.00 | 47 | 1017.3 |
| 20260507221147 | 74 | 90 | 1.0 | 2.0 | 0.00 | 0.00 | 0.00 | 46 | 1017.4 |
| 20260507220123 | 74 | 135 | 1.0 | 2.0 | 0.00 | 0.00 | 0.00 | 46 | 1017.3 |
| 20260507215147 | 75 | 90 | 2.0 | 3.0 | 0.00 | 0.00 | 0.00 | 44 | 1017.3 |
| 20260507214123 | 75 | 0.0 | 0.0 | 0.00 | 0.00 | 0.00 | 44 | 1017.5 | |
| 20260507213147 | 75 | 45 | 2.0 | 3.0 | 0.00 | 0.00 | 0.00 | 40 | 1017.5 |
| 20260507212143 | 75 | 0.0 | 1.0 | 0.00 | 0.00 | 0.00 | 39 | 1017.7 | |
| 20260507211147 | 75 | 0.0 | 1.0 | 0.00 | 0.00 | 0.00 | 36 | 1017.6 | |
| 20260507210123 | 75 | 0 | 4.0 | 5.0 | 0.00 | 0.00 | 0.00 | 35 | 1017.8 |
| 20260507205228 | 75 | 45 | 3.0 | 4.0 | 0.00 | 0.00 | 0.00 | 36 | 1017.7 |
| 20260507204123 | 76 | 90 | 1.0 | 2.0 | 0.00 | 0.00 | 0.00 | 35 | 1017.8 |
| 20260507203147 | 76 | 90 | 1.0 | 2.0 | 0.00 | 0.00 | 0.00 | 39 | 1018.0 |
| 20260507202203 | 74 | 0 | 3.0 | 4.0 | 0.00 | 0.00 | 0.00 | 38 | 1018.0 |
| 20260507201147 | 73 | 90 | 3.0 | 5.0 | 0.00 | 0.00 | 0.00 | 37 | 1018.2 |
| 20260507200123 | 73 | 45 | 1.0 | 3.0 | 0.00 | 0.00 | 0.00 | 40 | 1018.2 |
| 20260507195147 | 73 | 90 | 7.0 | 9.0 | 0.00 | 0.00 | 0.00 | 37 | 1018.4 |
| 20260507194123 | 73 | 45 | 1.0 | 3.0 | 0.00 | 0.00 | 0.00 | 40 | 1018.6 |
| 20260507193308 | 73 | 0 | 3.0 | 5.0 | 0.00 | 0.00 | 0.00 | 40 | 1018.7 |
| 20260507192123 | 72 | 90 | 6.0 | 8.0 | 0.00 | 0.00 | 0.00 | 42 | 1018.7 |
| 20260507191147 | 72 | 0 | 3.0 | 3.0 | 0.00 | 0.00 | 0.00 | 42 | 1018.7 |
| 20260507190123 | 72 | 0 | 5.0 | 7.0 | 0.00 | 0.00 | 0.00 | 42 | 1019.0 |
| 20260507185147 | 72 | 0 | 7.0 | 9.0 | 0.00 | 0.00 | 0.00 | 42 | 1019.2 |
| 20260507184123 | 71 | 90 | 2.0 | 3.0 | 0.00 | 0.00 | 0.00 | 43 | 1019.3 |
| 20260507183147 | 71 | 0 | 4.0 | 5.0 | 0.00 | 0.00 | 0.00 | 42 | 1019.5 |
| 20260507182123 | 71 | 315 | 4.0 | 8.0 | 0.00 | 0.00 | 0.00 | 46 | 1019.4 |
| 20260507181147 | 70 | 225 | 2.0 | 4.0 | 0.00 | 0.00 | 0.00 | 45 | 1019.9 |
| 20260507180123 | 70 | 270 | 1.0 | 2.0 | 0.00 | 0.00 | 0.00 | 50 | 1019.7 |
| 20260507175147 | 69 | 90 | 4.0 | 6.0 | 0.00 | 0.00 | 0.00 | 50 | 1020.0 |
| 20260507174143 | 69 | 0 | 2.0 | 3.0 | 0.00 | 0.00 | 0.00 | 50 | 1020.3 |
| 20260507173147 | 69 | 45 | 3.0 | 4.0 | 0.00 | 0.00 | 0.00 | 50 | 1020.6 |
| 20260507172123 | 68 | 45 | 1.0 | 3.0 | 0.00 | 0.00 | 0.00 | 50 | 1021.0 |
| 20260507171207 | 68 | 90 | 3.0 | 5.0 | 0.00 | 0.00 | 0.00 | 50 | 1021.2 |
| 20260507170123 | 67 | 45 | 1.0 | 3.0 | 0.00 | 0.00 | 0.00 | 51 | 1021.3 |
| 20260507165147 | 67 | 90 | 3.0 | 5.0 | 0.00 | 0.00 | 0.00 | 51 | 1021.3 |